Flag for Germany Weather past 2 weeks in Bamberg, Bavaria, Germany

Now
32 °F

Fog.


Feels Like: 32 °F
Forecast: 32 / 36 °F
Wind: 2 mph from Northwest

Location: Bamberg

Current Time: Jan 25, 2015 at 5:26:48 AM

Latest Report: Jan 25, 2015 at 4:00 AM


Visibility: 4 mi

Pressure: 30.29 "Hg

Humidity: 92%

Dew point: 30 °F

Location of BambergLocation

Historic Weather in Bamberg — Graph

°F

Bamberg temperature yesterday

Maximum temperature yesterday: 34 °F (at 12:00 PM)
Minimum temperature yesterday: 32 °F (at 7:00 AM)
Average temperature yesterday: 33 °F

Past Weeks' High & Low Weather Summary

 TemperatureHumidityPressure
High57 °F (Jan 10, 12:00 PM)100% (Jan 18, 1:00 AM)30.30 "Hg (Jan 18, 1:00 AM)
Low27 °F (Jan 21, 8:00 AM)38% (Jan 13, 12:00 PM)29.73 "Hg (Jan 16, 10:00 PM)
Average38 °F81%30.00 "Hg
* Reported Jan 10 4:00 AM — Jan 25 4:00 AM, Bamberg, Weather by CustomWeather, © 2014

Note: Actual official high and low records may vary slightly from our data, if they occured in-between our weather recording intervals... More about our weather records

Advertising

Bamberg weather history for previous 24 hours

 ConditionsComfort  
Time TempWeatherWind HumidityBarometerVisibility
4:00 AM
Jan 25
32 °FFog.2 mph92%30.29 "Hg4 mi
3:00 AM33 °FPassing clouds.1 mph92%30.27 "Hg3 mi
2:00 AM32 °FLight snow. Low clouds.2 mph93%30.25 "Hg2 mi
1:00 AM32 °FLight snow. Passing clouds.1 mph93%30.25 "Hg1 mi
12:00 AM32 °FLight snow. Passing clouds.1 mph90%30.24 "Hg2 mi
11:00 PM
Jan 24
32 °FLight snow. Passing clouds.1 mph87%30.23 "Hg3 mi
10:00 PM33 °FSnow flurries. Overcast.2 mph81%30.22 "Hg6 mi
9:00 PM32 °FPassing clouds.1 mph84%30.21 "Hg5 mi
8:00 PM33 °FOvercast.1 mph81%30.20 "Hg6 mi
7:00 PM33 °FOvercast.1 mph78%30.18 "Hg6 mi
6:00 PM33 °FOvercast.1 mph75%30.17 "Hg9 mi
5:00 PM33 °FOvercast.2 mph76%30.15 "Hg7 mi
4:00 PM33 °FOvercast.1 mph78%30.13 "Hg7 mi
3:00 PM33 °FOvercast.2 mph78%30.14 "Hg7 mi
2:00 PM33 °FOvercast.5 mph78%30.14 "Hg6 mi
1:00 PM34 °FOvercast.3 mph75%30.14 "Hg9 mi
12:00 PM34 °FOvercast.2 mph77%30.16 "Hg9 mi
11:00 AM33 °FOvercast.1 mph81%30.18 "Hg11 mi
10:00 AM33 °FOvercast.2 mph81%30.20 "Hg10 mi
9:00 AM32 °FOvercast.1 mph82%30.21 "Hg12 mi
8:00 AM32 °FOvercast.1 mph83%30.22 "Hg11 mi
7:00 AM32 °FOvercast.1 mph83%30.22 "Hg11 mi
6:00 AM32 °FPassing clouds.1 mph82%30.22 "Hg9 mi
5:00 AM32 °FPassing clouds.1 mph83%30.23 "Hg7 mi
Weather by CustomWeather, © 2014

See weather overviewHow to use our weather pages